Overview Statistics Trail Chart Weather Telemetry Raw packets
 

This is the latest recevied weather packets stored in our database for station/object PTG2-WX. If no packets are shown the sender has not sent any weather packets the latest 10 day(s).

<< 4 5 6 7 8 9 10 >>
Time Temp. Humidity Pressure Rain* Wind** Luminosity Snow
1788131834 15.56° C 81% 1018.4 hPa - - - -
1788128234 15.56° C 81% 1018.4 hPa - - - -
1788124634 16.11° C 80% 1018.5 hPa - - - -
1788121033 16.11° C 79% 1018.7 hPa - - - -
1788117434 16.67° C 81% 1018.9 hPa - - - -
1788113834 16.11° C 84% 1018.8 hPa - - - -
1788110234 16.11° C 80% 1019 hPa - - - -
1788106634 16.11° C 81% 1018.6 hPa - - - -
1788103034 17.22° C 77% 1017.8 hPa - - - -
1788099433 17.78° C 75% 1017.8 hPa - - - -
1788095835 17.78° C 72% 1017.6 hPa - - - -
1788092234 17.78° C 72% 1017.8 hPa - - - -
1788088634 17.78° C 76% 1017.5 hPa - - - -
1788085034 17.22° C 80% 1017.7 hPa - - - -
1788081434 16.67° C 81% 1017.9 hPa - - - -
1788077834 16.67° C 81% 1018.4 hPa - - - -
1788074234 16.67° C 81% 1018.4 hPa - - - -
1788070634 16.11° C 83% 1018.5 hPa - - - -
1788067034 16.11° C 84% 1017.9 hPa - - - -
1788063433 16.11° C 85% 1017.6 hPa - - - -
1788059834 16.11° C 82% 1017.5 hPa - - - -
1788056234 16.11° C 81% 1017.1 hPa - - - -
1788052634 16.67° C 83% 1016.8 hPa - - - -
1788049034 16.67° C 84% 1016.8 hPa - - - -
1788045437 17.22° C 84% 1016.7 hPa - - - -

* Rain since midnight (hover to see other rain measurements)
** Current wind speed in m/s (hover to see current wind gust speed)